CW9988 Weather Reports


time (UTC)temp
C
wind
direction
speed
KPH
gust
KPH
rain 1hr
cm
rain 24hr
cm
rain mn
cm
humidity
%
barometer
mb
20260506191541 6 276 4.8 17.7 0.00 0.00 0.00 62 1015.4
20260506190037 6 276 6.4 27.4 0.00 0.00 0.00 62 1015.3
20260506184551 7 285 8.0 22.5 0.00 0.00 0.00 61 1015.1
20260506183053 7 0 8.0 24.1 0.00 0.00 0.00 63 1015.3
20260506181608 7 315 6.4 30.6 0.00 0.00 0.00 61 1015.1
20260506180042 7 267 11.3 30.6 0.00 0.00 0.00 61 1015.1
20260506174541 8 0 4.8 27.4 0.00 0.00 0.00 60 1015.1
20260506173056 8 250 9.7 35.4 0.00 0.00 0.00 60 1015.1
20260506171543 8 267 12.9 37.0 0.00 0.00 0.00 58 1015.0
20260506170042 8 284 14.5 32.2 0.00 0.00 0.00 58 1015.0
20260506164543 8 228 12.9 32.2 0.00 0.00 0.00 58 1014.9
20260506163040 8 275 17.7 37.0 0.00 0.00 0.00 57 1014.9
20260506161538 9 292 14.5 32.2 0.00 0.00 0.00 56 1014.9
20260506160037 10 291 14.5 35.4 0.00 0.00 0.00 53 1014.6
20260506154544 10 277 17.7 37.0 0.00 0.00 0.00 53 1014.9
20260506153059 10 266 20.9 35.4 0.00 0.00 0.00 51 1014.8
20260506151544 10 203 19.3 32.2 0.00 0.00 0.00 51 1014.9
20260506150046 11 277 16.1 30.6 0.00 0.00 0.00 54 1014.9
20260506144538 10 278 17.7 32.2 0.00 0.00 0.00 57 1015.0
20260506143040 11 281 12.9 32.2 0.00 0.00 0.00 55 1015.3
20260506141537 10 282 16.1 30.6 0.00 0.00 0.00 55 1015.2
20260506140039 10 0 11.3 35.4 0.00 0.00 0.00 57 1015.0
20260506134538 10 290 11.3 29.0 0.00 0.00 0.00 56 1015.1
20260506133037 10 278 11.3 33.8 0.00 0.00 0.00 56 1015.3
20260506131539 10 283 16.1 37.0 0.00 0.00 0.00 57 1015.4
20260506130042 10 257 16.1 32.2 0.00 0.00 0.00 55 1015.5
20260506124540 10 261 14.5 32.2 0.00 0.00 0.00 55 1015.3
20260506123039 10 270 16.1 33.8 0.00 0.00 0.00 53 1015.2
20260506121538 10 294 4.8 29.0 0.00 0.00 0.00 52 1015.4
20260506120044 11 298 12.9 27.4 0.00 0.00 0.00 52 1015.6
20260506114543 11 275 16.1 29.0 0.00 0.00 0.00 52 1015.6
20260506113043 11 278 12.9 25.7 0.00 0.00 0.00 52 1015.3
20260506111539 9 277 12.9 29.0 0.00 0.00 0.00 58 1015.4
20260506110038 8 280 16.1 25.7 0.00 0.00 0.00 59 1015.6
20260506104536 9 276 14.5 29.0 0.00 0.00 0.00 61 1015.5
20260506103052 10 286 14.5 27.4 0.00 0.00 0.00 60 1015.5
20260506101541 9 267 8.0 19.3 0.00 0.00 0.00 59 1015.3
20260506100039 9 281 16.1 27.4 0.00 0.00 0.00 60 1015.5
20260506094540 10 0 0.0 19.3 0.00 0.00 0.00 57 1015.4
20260506093037 8 0 0.0 16.1 0.00 0.00 0.00 60 1015.6
20260506091536 9 0 4.8 22.5 0.00 0.00 0.00 59 1015.5
20260506090041 10 0 9.7 20.9 0.00 0.00 0.00 58 1015.4
20260506084546 11 0 0.0 17.7 0.00 0.00 0.00 52 1015.3
20260506083040 11 274 0.0 22.5 0.00 0.00 0.00 52 1015.2
20260506081540 10 275 3.2 16.1 0.00 0.00 0.00 58 1015.2
20260506073041 7 0 3.2 14.5 0.00 0.00 0.00 63 1015.2
20260506071542 7 0 0.0 6.4 0.00 0.00 0.00 63 1015.1
20260506061536 3 0 0.0 0.0 0.00 0.00 0.00 90 1015.2
20260506044542 0 0 0.0 0.0 0.00 0.00 0.00 91 1014.7
20260506043040 0 0 0.0 0.0 0.00 0.00 0.00 92 1014.7
20260506041538 -1 0 0.0 0.0 0.00 0.00 0.00 92 1014.6
20260506040040 -1 0 0.0 0.0 0.00 0.00 0.00 91 1014.6
20260506034545 -1 0 0.0 0.0 0.00 0.00 0.00 91 1014.6
20260506033042 0 0 0.0 0.0 0.00 0.00 0.00 91 1014.7
20260506031543 0 0 0.0 0.0 0.00 0.00 0.00 91 1014.6
20260506030043 0 0 0.0 0.0 0.00 0.00 0.00 91 1014.6
20260506024557 0 0 0.0 0.0 0.00 0.00 0.00 90 1014.6
20260506023037 0 0 0.0 0.0 0.00 0.00 0.00 90 1014.5
20260506021544 0 0 0.0 0.0 0.00 0.00 0.00 89 1014.8
20260506020040 0 0 0.0 0.0 0.00 0.00 0.00 89 1014.7
20260506014546 0 0 0.0 0.0 0.00 0.00 0.00 89 1014.7
20260506013058 0 0 0.0 0.0 0.00 0.00 0.00 89 1014.7
20260506011556 0 0 0.0 0.0 0.00 0.00 0.00 88 1014.7
20260506010038 0 0 0.0 0.0 0.00 0.00 0.00 88 1014.7
20260506004543 0 0 0.0 0.0 0.00 0.00 0.00 86 1014.6
20260506003041 1 0 0.0 0.0 0.00 0.00 0.00 83 1014.6
20260506001544 2 0 0.0 0.0 0.00 0.00 0.00 83 1014.8
20260506000040 2 0 0.0 0.0 0.00 0.00 0.00 81 1014.7
20260505234539 2 0 0.0 0.0 0.00 0.00 0.00 83 1014.8
20260505233036 2 0 0.0 0.0 0.00 0.00 0.00 82 1014.7
20260505231538 2 0 0.0 0.0 0.00 0.00 0.00 83 1014.8
20260505230054 2 0 0.0 0.0 0.00 0.00 0.00 83 1014.7
20260505224540 2 0 0.0 0.0 0.00 0.00 0.00 83 1014.8
20260505223053 2 0 0.0 0.0 0.00 0.00 0.00 83 1014.7
20260505221539 2 0 0.0 0.0 0.00 0.00 0.00 82 1014.7
20260505220042 2 0 0.0 0.0 0.00 0.00 0.00 81 1014.7
20260505214536 2 0 0.0 0.0 0.00 0.00 0.00 80 1014.7
20260505213053 3 0 0.0 0.0 0.00 0.00 0.00 80 1014.7
20260505211542 3 0 0.0 0.0 0.00 0.00 0.00 78 1014.9
20260505210040 3 0 0.0 0.0 0.00 0.00 0.00 77 1014.9
20260505204540 3 0 0.0 0.0 0.00 0.00 0.00 74 1014.9
20260505203050 4 0 0.0 0.0 0.00 0.00 0.00 73 1014.8
20260505201542 5 0 0.0 6.4 0.00 0.00 0.00 71 1014.8
20260505200039 5 0 0.0 17.7 0.00 0.00 0.00 70 1014.7
20260505194540 5 0 3.2 22.5 0.00 0.00 0.00 69 1014.7
20260505193037 6 0 8.0 19.3 0.00 0.00 0.00 68 1014.7